Tracking 27371 objects as of 7-Jun-2023
HD Live streaming from Space Station
objects crossing your sky now

STARLINK-3068

Track STARLINK-3068 now!
10-day predictions
STARLINK-3068 is classified as:


NORAD ID: 49154
Int'l Code: 2021-082AA
Perigee: 576.9 km
Apogee: 581.5 km
Inclination: 70.0 °
Period: 96.1 minutes
Semi major axis: 6950 km
RCS: Unknown
Launch date: September 14, 2021
Source: United States (US)
Launch site: AIR FORCE WESTERN TEST RANGE (AFWTR)
Your satellite tracking list
Your tracking list is empty




NASA's NSSDC Master Catalog

Two Line Element Set (TLE):
1 49154U 21082AA  23157.78561318 -.00000047  00000-0  38721-5 0  9991
2 49154  69.9991 293.2048 0003336 271.1581  88.9196 14.98334981 96721
Source of the keplerian elements: AFSPC